Regional Weather Roundup
Issued by NWS San Angelo, TX

Home | Current Version | Previous Version | Text Only | Print | Product List | Glossary On
Versions: 1 2 3 4 5 6 7 8 9 10 11 12 13 14 15 16 17 18 19 20 21 22 23 24 25 26 27 28 29 30 31 32 33 34 35 36 37 38 39 40 41 42 43 44 45 46 47 48 49 50
000
ASUS44 KSJT 222110
RWRSJT
WEST CENTRAL TEXAS REGIONAL WEATHER ROUNDUP
NATIONAL WEATHER SERVICE SAN ANGELO TX
400 PM CDT FRI SEP 22 2017

NOTE: "FAIR" INDICATES FEW OR NO CLOUDS BELOW 12,000 FEET WITH NO
SIGNIFICANT WEATHER AND/OR OBSTRUCTIONS TO VISIBILITY.

TXZ049-054-064>066-071>073-076>078-098-099-113-114-127-128-139-140-
154-155-168>170-222200
...LOCATIONS ACROSS WEST CENTRAL TEXAS...

CITY           SKY/WX    TMP DP  RH WIND       PRES   REMARKS
SAN ANGELO     MOSUNNY   95  60  31 S9G23     29.87F
ABILENE        PTSUNNY   92  63  38 S18G25    29.89F
DYESS AFB      MOSUNNY   94  65  38 SE12      29.87F
JUNCTION       NOT AVBL
SWEETWATER     MOSUNNY   93  59  31 SE17G25   29.92F
BROWNWOOD      LGT RAIN  93  63  36 S14       29.88F
COLEMAN        CLEAR     92  62  35 SE18      29.89F
SONORA         SUNNY     91  63  38 S12       29.93F
OZONA          FAIR      88  61  40 S18G25    29.92F
BRADY          NOT AVBL
$$

TEXAS PANHANDLE/OKLAHOMA PANHANDLE

CITY           SKY/WX    TMP DP  RH WIND       PRES   REMARKS
AMARILLO       SUNNY     88  61  40 SE20G33   29.90F
BORGER         SUNNY     92  57  30 S20G29    29.85F
CANADIAN       MOSUNNY   92  65  40 S20G26    29.85S
DALHART        MOSUNNY   92  57  30 S29G36    29.86F
DUMAS          PTCLDY    89  61  38 S25G31    29.86F
GUYMON         NOT AVBL
HEREFORD       CLEAR     91  64  40 S20G29    29.90F
PAMPA          CLEAR     91  58  32 S26G33    29.89F
PERRYTON       SUNNY     95  55  25 S21G29    29.84F
$$

SOUTHERN PANHANDLE/SOUTH PLAINS/ROLLING PLAINS

CITY           SKY/WX    TMP DP  RH WIND       PRES   REMARKS
LUBBOCK        MOSUNNY   90  62  39 S20       29.89F
SNYDER         MOSUNNY   89  63  41 S16G22    29.89F
CHILDRESS      MOSUNNY   92  63  38 S18G25    29.86F
SEMINOLE       CLEAR     91  60  34 S15G24    29.89F
$$

PERMIAN BASIN

CITY           SKY/WX    TMP DP  RH WIND       PRES   REMARKS
MIDLAND        MOSUNNY   91  63  39 S21       29.89F
ODESSA         SUNNY     88  64  44 S21G28    29.90F
WINK           SUNNY     94  62  34 SE17G29   29.82F
$$

FAR WEST/SOUTHWEST MOUNTAINS/TRANS PECOS

CITY           SKY/WX    TMP DP  RH WIND       PRES   REMARKS
ALPINE         MOCLDY    88  56  33 S7G16     30.00F
DRYDEN           N/A     92  67  43 SE16G26   29.85F
EL PASO        MOSUNNY   93  42  17 S10       29.87F
FORT STOCKTON  NOT AVBL
GUADALUPE PASS CLOUDY    88  47  24 S10       30.02S
MARFA          NOT AVBL
PECOS          MOCLDY    94  63  35 E20       29.80F
$$

DALLAS/FORT WORTH METROPLEX

CITY           SKY/WX    TMP DP  RH WIND       PRES   REMARKS
DFW AIRPORT    MOSUNNY   94  66  39 SE17      29.89F
FTW MEACHAM    MOSUNNY   94  69  44 SE16G24   29.89F
DAL-EXECUTIVE  MOSUNNY   93  64  38 S13G18    29.90F
GRAND PRAIRIE  SUNNY     91  63  38 SE8G16    29.91F
ADDISON        MOSUNNY   91  63  38 SE13G21   29.92F
MESQUITE       PTCLDY    93  59  31 S13G18    29.92F
LANCASTER      PTCLDY    92  65  40 SE15      29.92F
$$

NORTH CENTRAL TEXAS

CITY           SKY/WX    TMP DP  RH WIND       PRES   REMARKS
SHRMAN/DENISON CLEAR     90  66  45 SE13      29.94F
GAINESVILLE    MOSUNNY   89  67  49 SE13G22   29.94F
BRIDGEPORT     CLEAR     90  66  45 S12G21    29.92F
DENTON         MOSUNNY   90  69  50 SE13      29.90F
WAXAHACHIE     PTCLDY    92  64  38 S6        29.92F
GRANBURY       PTCLDY    93  66  41 SE14      29.90F
$$

WESTERN NORTH TEXAS

CITY           SKY/WX    TMP DP  RH WIND       PRES   REMARKS
WICHITA FALLS  MOSUNNY   90  68  48 SE17G25   29.88F
VERNON         PTCLDY    95  56  26 SE16G24   29.86F
BRECKENRIDGE   CLEAR     94  61  32 S13G23    29.88F
COMANCHE       PTSUNNY   94  65  38 S17G23    29.90F
$$

CENTRAL AND SOUTH CENTRAL TEXAS

CITY           SKY/WX    TMP DP  RH WIND       PRES   REMARKS
AUSTIN/BERGSTM NOT AVBL
WACO           MOSUNNY   93  65  39 S12       29.90F
HILLSBORO      PTCLDY    94  65  38 S10G20    29.91F
TEMPLE         MOSUNNY   91  68  46 S9G21     29.91F
KILLEEN-GRAY   MOSUNNY   89  69  51 SE14      29.91S
FORT HOOD      SUNNY     88  69  52 SE17G25   29.89F
GEORGETOWN     SUNNY     90  68  48 S12G18    29.93F
LAGO VISTA     FAIR      89  69  50 S13G20    29.94F
SAN MARCOS     MOSUNNY   82  71  69 S14       29.92S
NEW BRAUNFELS  NOT AVBL
RANDOLPH AFB   SUNNY     89  73  57 E20       29.89F
SAN ANTONIO    NOT AVBL
STINSON        NOT AVBL
PLEASANTON     NOT AVBL
LA GRANGE      SUNNY     89  73  59 S12       29.90F
GIDDINGS       MOCLDY    84  70  62 S9        29.94R
$$

EAST TEXAS

CITY           SKY/WX    TMP DP  RH WIND       PRES   REMARKS
PARIS          SUNNY     91  67  44 SE10      29.95F
CLARKSVILLE    NOT AVBL
TYLER          SUNNY     90  63  40 SE7       29.94F
LONGVIEW       MOSUNNY   91  68  46 SE7       29.93F
PALESTINE      PTCLDY    89  69  50 E6        29.95F
NACOGDOCHES    SUNNY     88  69  53 VRB3      29.95F
$$

TEXAS HILL COUNTRY AND EDWARDS PLATEAU

CITY           SKY/WX    TMP DP  RH WIND       PRES   REMARKS
LLANO            N/A     90  66  45 MISG        N/A
HORSESHOE BAY  FAIR      92  66  42 S12G18    29.91F
KERRVILLE      PTSUNNY   92  68  45 S15       29.91F
FREDERICKSBRG  MOSUNNY   89  60  37 SE9G16    29.92F
ROCKSPRINGS    NOT AVBL
HONDO          NOT AVBL
UVALDE         PTCLDY    95  66  38 SE17G23   29.85F
DEL RIO        NOT AVBL
$$

SOUTHEAST TEXAS

CITY           SKY/WX    TMP DP  RH WIND       PRES   REMARKS
COLLEGE STN    NOT AVBL
CALDWELL       MOCLDY    91  70  50 SE10      29.92F
CROCKETT       CLOUDY    90  70  51 SE7       29.97F
BRENHAM        MOSUNNY   91  68  46 E13       29.92F
HUNTSVILLE     NOT AVBL
CONROE         NOT AVBL
HOUSTON BUSH   NOT AVBL
HOUSTON HOBBY  NOT AVBL
PERLAND        NOT AVBL
WHARTON        CLEAR     86  68  54 SE9       29.92F
$$

THE UPPER TEXAS COAST

CITY           SKY/WX    TMP DP  RH WIND       PRES   REMARKS
ORANGE         MOCLDY    88  74  64 SW10      29.94F
PORT ARTHUR    NOT AVBL
GALVESTON      NOT AVBL
ANGLETON       NOT AVBL
BAY CITY       MOCLDY    90  73  57 SE12      29.92F HAZE
$$

TEXAS COASTAL BEND, RIO GRANDE PLAINS DEEP SOUTH TEXAS

CITY           SKY/WX    TMP DP  RH WIND       PRES   REMARKS
VICTORIA       NOT AVBL
BEEVILLE       FAIR      94  48  21 SE15G22   29.87F
ROCKPORT       NOT AVBL
PORT ARANSAS   NOT AVBL
PORT LAVACA    NOT AVBL
CORPUS CHRISTI NOT AVBL
KINGSVILLE NAS PTSUNNY   93  69  45 SE17G25   29.85F
COTULLA        NOT AVBL
LAREDO         NOT AVBL
BROWNSVILLE    NOT AVBL
PORT ISABEL    NOT AVBL
HEBBRONVILLE   MOCLDY    93  66  41 E15       29.83F
MCALLEN        NOT AVBL
WESLACO        CLOUDY    86  71  60 S13G23    29.81S
FALFURRIAS     CLEAR    -38  32 100 E12G21    29.82F WCI -64
EDINBURG       CLOUDY    95  66  38 E18       29.80F
$$




USA.gov is the U.S. government's official web portal to all federal, state and local government web resources and services.